CZ-6A DEB

Satellite information

Favourite Embed

Satellite Type and Status

DEBRISIN ORBIT

Key statistics

Satellite CZ-6A DEB at a glance.

Uptime

334

Days in orbit

Revolutions

≈ 14.6

Per day

Orbit

LEO

Low Earth Orbit

Inclination

89.0

Latest

Satellite identification and parameters

Extended collection of information and parameters for CZ-6A DEB.

Object identification

Identified? True

Debris? True

Object name: CZ-6A DEB

International designator: 2024-140Z

Object number (NORAD): 60624

Object ID (CCSDS): 60624

Country: PEOPLES REPUBLIC OF CHINA (PRC)

Current information (Y/N): Y

RCS size: LARGE

Orbital parameters

Period: 98.925 minutes

Inclination: 89.044 deg

SMA: 7085.406 km

Apoapsis: 789.038 km

Periapsis: 625.504 km

RAAN: 313.1397 deg

Eccentricy: 0.0115402

Argument of periapsis: 7.385 deg

Mean anomaly: 352.9024 deg

Mean motion: 14.55645575 rev/day

Mean motion (dot): 0.00001135 rev/day2

B* drag term: 0.00023389 1/REarth

Two-line elements (TLE)

Creation date: July 5, 2025, 10:36 p.m.

Reference frame: TEME

Reference center: EARTH

Epoch: July 5, 2025, 9:26 p.m. UTC

TLE line 0: 0 CZ-6A DEB

TLE line 1: 1 60624U 24140Z 25186.89319755 .00001135 00000-0 23389-3 0 9996

TLE line 2: 2 60624 89.0440 313.1397 0115402 7.3850 352.9024 14.55645575 48282

Live tracking on map

Real-time ground track for satellite CZ-6A DEB.

In-orbit conjunctions

A list of the most updated potential collisions computed for object CZ-6A DEB.

Target Orbit TCA Probability of collision Miss distance Type
PEGASUS DEB LEO 2025-02-22 14:34:08 0.002797553 330.0 (m) DEBRIS
COSMOS 2251 DEB LEO 2025-01-29 21:52:22 0.0005173318 336.0 (m) DEBRIS
COSMOS 2251 DEB LEO 2024-12-12 03:40:59 0.0001529682 70.0 (m) DEBRIS
COSMOS 2251 DEB LEO 2024-11-28 14:44:27 0.0001023602 941.0 (m) DEBRIS
RUBIN 3/SL-8 SSO 2024-11-26 18:22:43 0.0001667711 972.0 (m) PAYLOAD

Associated space launch

18 Low Earth Orbit communication satellites with Ku, Q and V band payloads for the G60 constellation operated by Shanghai Spacecom Satellite Technology (SSST) with funding backed by the Shanghai local government. Initial constellation will consist of 1296 satellites by 2027 with long term plans to expand it to 12000 satellites.

CZ-6A DEB was lifted into orbit during the mission ‘Long March 6A | G60 Polar Group 01’, on board a Long March 6A space rocket.

The launch took place on Aug. 6, 2024, 6:42 a.m. from Launch Complex 9A.

For more information about the launch, click the button.

Launch to space Long March 6A | G60 Polar Group 01
Long March 6A | G60 Polar Group 01

Agency: N/A

Status: Launch Successful

Launch date: Aug. 6, 2024, 6:42 a.m. UTC

Rocket: Long March 6A

Launch pad: Launch Complex 9A

Location: Taiyuan Satellite Launch Center, People's Republic of China

...

Latest news about this satellite

News about space launch
Brightness of first Chinese broadband constellation satellites alarms astronomers

The first satellites of a Chinese broadband constellation are significantly brighter than those of Western systems, posing a new challenge for astronomers.

News about space launch
Chinese rocket stage breaks up into cloud of more than 700 pieces of space debris

HELSINKI — A Chinese Long March 6A rocket’s upper stage has fragmented into a cloud of over 700 pieces of space debris, adding to concerns about long-term orbital safety. China […]

News about space launch
China's Thousand Sails Megaconstellation Kicks Off with Dangerous Debris Field

China's Thousand Sails Megaconstellation Kicks Off with Dangerous Debris Field


Newsletter sign-up

Weekly statistics, charts and insights to help you stay on top of the space industry.